Wind_Speed
31 28 27 25 24 25 25 24 23 22 22 20 20 19 18 16 14 13 11 11 8 9 7 6 2 7 5 11 15 21 25 18 16 14 12 14 13 14 15 14 14 15 16
35 32 30 27 25 26 26 25 24 24 23 22 21 20 20 19 17 15 14 12 10 8 7 7 5 6 7 6 11 17 23 21 16 15 14 14 14 13 15 15 15 17 18
39 35 33 30 27 27 26 27 27 27 27 25 23 23 22 21 19 16 15 14 12 9 9 8 8 8 9 10 9 9 13 26 18 16 14 13 13 13 15 16 17 17 19
41 40 37 33 30 29 30 29 28 28 26 25 24 24 22 20 19 17 15 14 14 12 10 10 9 10 10 11 11 10 11 19 28 22 17 11 11 13 16 17 18 20 21
47 43 39 36 33 32 32 30 29 28 28 27 25 23 22 21 20 17 16 14 13 11 11 11 11 12 12 13 12 12 13 11 20 21 21 16 19 16 17 19 19 22 23
49 44 43 39 35 35 34 32 29 29 29 27 26 25 23 22 20 17 15 13 12 11 10 10 12 12 13 14 14 14 14 13 17 23 24 25 22 24 29 22 21 24 25
48 48 47 41 37 38 35 32 30 31 30 29 27 27 26 23 23 19 16 12 10 11 11 11 11 12 13 15 15 15 15 16 16 17 19 21 23 26 27 31 25 25 26
49 46 49 46 42 41 38 37 33 32 30 30 30 28 28 26 23 19 16 13 11 11 9 10 9 9 12 14 15 16 16 18 19 18 18 20 20 22 22 31 27 27 28
52 51 55 50 47 44 40 38 35 34 32 31 32 31 29 24 18 17 16 14 13 12 10 9 8 9 9 11 13 16 16 18 21 21 20 19 20 22 25 28 33 31 30
57 51 52 53 52 48 44 41 38 35 34 33 33 33 29 24 21 20 18 15 14 13 13 12 12 12 11 10 12 14 17 18 20 23 24 23 22 22 24 28 29 35 40
65 58 56 59 61 53 48 45 41 39 36 34 33 32 30 27 25 23 20 18 18 16 16 17 17 17 17 17 14 13 15 17 18 22 23 25 25 25 25 27 24 23 42
63 60 60 47 63 53 52 47 44 41 39 37 35 34 31 29 26 25 22 21 20 19 18 19 21 22 20 21 19 17 15 16 18 20 24 24 26 27 26 26 19 19 21
58 65 62 61 56 41 53 50 48 44 42 40 37 35 33 31 29 27 26 25 23 21 21 22 22 21 21 23 21 21 20 20 18 19 21 21 24 27 28 26 27 24 25
58 63 58 67 56 46 58 55 50 45 44 41 40 38 35 33 31 30 28 27 26 27 26 23 20 21 19 22 21 22 22 22 22 19 20 21 21 26 28 28 27 32 32
52 50 63 66 63 58 52 54 51 49 45 43 40 38 37 34 33 32 30 29 29 31 29 24 20 30 30 24 21 19 19 22 25 25 22 23 23 24 27 27 32 32 32
49 44 56 62 55 33 57 51 48 48 47 43 41 40 39 38 36 35 34 31 33 35 33 31 31 33 35 32 24 22 19 18 23 25 26 25 25 26 29 27 33 35 39
30 44 48 50 41 44 49 53 50 48 48 44 43 42 41 39 38 39 41 37 33 38 35 38 30 24 23 31 31 28 24 23 26 26 26 29 31 30 32 32 30 34 35
23 37 35 40 26 41 36 57 51 48 51 51 50 47 46 43 41 39 32 30 35 43 40 31 27 18 19 19 21 31 34 29 31 32 33 33 34 35 34 36 37 31 38
14 21 27 33 6 14 52 45 54 48 55 56 50 47 36 40 39 37 37 38 37 36 38 36 32 28 26 29 32 31 31 36 39 43 35 36 36 36 37 37 39 38 35
9 9 16 12 33 20 2 23 37 38 48 47 46 51 44 44 41 35 38 38 40 41 38 40 36 35 37 36 37 39 40 44 43 43 39 38 34 40 38 39 40 41 40
11 5 10 15 18 34 35 20 15 13 15 16 20 31 25 22 26 29 37 36 35 40 38 38 40 42 44 42 41 40 40 41 41 41 41 36 35 35 37 39 40 42 42
14 10 8 4 12 24 32 32 32 27 26 23 20 22 29 28 30 31 31 33 34 39 41 45 45 48 43 45 47 43 44 44 38 36 36 41 38 41 38 41 40 41 42
15 8 9 6 6 7 4 4 3 7 10 13 13 17 23 30 34 39 31 38 38 40 43 45 48 48 47 48 45 43 49 35 32 36 40 45 45 41 40 43 46 43 42
27 24 20 18 16 16 16 14 13 12 11 11 13 16 17 21 28 33 35 38 42 43 43 44 45 46 48 52 46 47 47 50 53 48 47 45 43 41 37 36 37 42 42
21 19 17 16 13 10 9 9 7 6 7 8 8 8 9 11 13 17 19 20 23 27 33 38 43 46 46 51 48 49 49 50 49 51 44 48 46 43 42 45 45 44 44
16 15 13 11 11 11 11 11 12 11 11 13 13 13 13 15 15 16 17 19 20 21 21 21 23 29 34 43 44 51 50 53 54 51 52 52 51 50 48 45 47 47 48
Wind_Direction
247 250 249 248 244 240 236 230 225 225 226 226 227 229 235 241 240 243 234 236 226 228 223 227 254 169 160 201 225 237 235 243 249 252 251 249 240 240 240 233 225 222 221
243 243 247 246 244 238 235 231 228 227 228 226 229 231 236 238 242 241 241 239 239 238 224 224 211 201 205 214 243 254 243 236 245 248 249 253 250 249 249 244 234 226 221
241 241 242 243 244 236 233 228 227 225 227 226 224 229 232 235 239 242 242 238 238 237 230 226 233 219 227 236 254 272 239 232 244 249 245 250 256 252 253 248 241 229 225
234 238 238 238 240 237 233 231 229 230 230 232 230 230 233 232 241 244 244 241 238 236 232 233 231 244 239 242 243 246 253 258 245 239 242 240 257 258 255 254 245 235 229
234 235 235 236 236 236 235 231 231 231 230 231 231 231 230 237 240 239 241 236 234 238 241 238 238 237 244 247 252 254 260 276 236 227 237 246 253 265 262 251 248 241 235
230 235 233 232 231 234 234 232 230 229 231 231 232 230 228 234 233 237 230 229 229 229 236 246 249 244 242 245 248 254 253 255 238 236 246 261 253 249 261 257 245 244 239
222 228 234 229 228 231 233 236 231 229 226 225 224 226 228 226 226 232 229 221 219 221 224 240 248 254 249 247 245 250 253 249 245 250 252 264 258 257 270 243 243 240 241
221 222 229 231 227 229 229 231 229 229 226 222 226 226 224 223 225 224 224 223 228 231 229 233 245 254 257 256 256 252 252 251 248 254 260 262 260 263 268 233 243 238 237
226 217 222 226 229 228 228 230 229 228 226 222 224 224 224 225 218 221 226 230 234 234 231 229 240 248 257 263 267 259 255 255 251 252 259 259 266 254 256 256 249 237 234
240 221 217 220 229 226 226 228 229 227 225 222 223 224 223 226 227 224 230 234 238 242 243 244 250 256 254 259 270 268 262 260 257 253 254 260 265 263 256 261 267 249 238
235 238 218 221 227 228 223 227 225 224 223 225 225 225 226 227 230 233 239 244 249 254 257 257 255 256 259 260 265 266 261 259 257 257 256 256 258 259 266 266 265 271 240
227 237 234 219 221 226 223 223 224 225 225 225 226 227 229 233 234 239 245 249 255 258 262 263 262 259 258 259 259 262 256 258 264 261 262 261 255 258 261 256 252 257 243
230 231 238 230 224 219 226 222 223 224 224 225 228 231 232 234 236 239 243 246 253 260 261 262 263 264 261 255 258 260 253 257 266 271 263 266 257 253 255 255 255 251 245
232 233 238 242 227 232 222 221 223 224 225 225 228 229 232 235 238 242 245 248 254 257 261 264 261 262 259 259 256 257 252 256 264 270 273 268 267 262 252 247 254 255 247
233 241 235 230 241 234 225 222 222 222 227 227 228 230 233 235 237 242 246 248 251 255 258 261 264 283 255 248 252 258 258 258 257 266 272 271 270 264 261 259 258 248 252
240 242 233 234 248 268 220 217 223 223 226 228 228 228 231 235 237 240 244 245 253 256 252 255 272 289 256 236 238 251 262 269 265 267 265 272 276 270 261 263 265 256 253
238 236 235 240 252 251 211 215 222 224 224 227 228 229 231 233 234 238 244 241 246 253 253 278 273 288 285 246 239 244 251 261 273 278 272 267 270 271 264 261 254 258 258
231 230 231 231 273 232 212 206 217 222 219 221 223 225 228 229 230 235 241 245 258 265 252 264 264 278 280 272 279 268 264 267 275 270 278 278 273 266 264 261 252 259 255
206 229 232 244 86 226 214 208 217 211 220 222 223 220 215 223 229 236 246 253 257 255 266 267 265 265 265 268 273 275 274 271 272 278 273 273 271 264 259 263 261 255 258
240 197 224 241 245 251 149 173 208 217 203 213 219 233 239 232 234 241 246 248 258 257 263 265 265 266 270 271 271 274 273 270 269 272 275 264 267 263 260 263 262 256 258
168 221 273 258 269 277 257 208 192 219 239 193 217 226 231 243 246 263 260 256 260 254 258 263 265 267 273 274 274 275 273 284 271 264 272 265 274 272 264 262 261 258 262
90 92 77 348 300 265 258 251 242 266 257 266 257 254 245 244 245 260 256 256 252 257 260 261 263 268 264 267 276 279 278 284 271 259 265 260 275 270 272 257 258 262 259
84 70 61 63 3 25 81 132 232 245 255 259 268 266 248 249 252 261 267 262 266 261 259 263 264 265 269 267 277 273 274 266 266 259 274 276 271 272 271 265 266 255 252
67 67 66 64 48 33 29 17 5 349 327 308 295 287 277 273 275 274 272 270 269 270 269 270 269 270 271 273 267 266 264 263 265 262 276 272 272 264 267 272 262 254 254
54 57 52 40 37 28 16 5 3 351 336 322 309 299 291 277 276 277 279 278 276 273 269 267 266 266 267 265 273 270 269 266 265 263 267 272 272 269 263 266 266 266 254
37 36 32 22 9 1 354 345 335 330 322 309 303 301 296 292 289 286 287 290 290 291 291 290 284 277 273 266 267 261 265 267 267 273 265 266 272 271 266 265 266 266 265
Height
3117 3118 3118 3119 3120 3122 3124 3125 3127 3128 3129 3131 3132 3134 3135 3136 3137 3137 3138 3139 3139 3138 3138 3139 3139 3137 3138 3141 3143 3144 3145 3146 3147 3147 3148 3149 3149 3150 3151 3151 3152 3155 3158
3109 3111 3113 3114 3115 3117 3119 3121 3122 3123 3125 3126 3128 3130 3131 3132 3134 3134 3135 3135 3135 3135 3136 3135 3136 3136 3137 3139 3141 3141 3140 3143 3144 3145 3145 3146 3147 3148 3149 3150 3151 3153 3155
3101 3104 3106 3108 3109 3111 3113 3115 3116 3118 3119 3121 3124 3126 3127 3128 3129 3130 3131 3132 3133 3133 3133 3133 3134 3134 3135 3137 3137 3138 3138 3141 3142 3142 3143 3144 3144 3145 3146 3147 3149 3150 3152
3091 3094 3098 3101 3104 3105 3107 3109 3111 3113 3115 3117 3119 3122 3123 3124 3125 3126 3127 3129 3130 3131 3131 3131 3131 3132 3132 3134 3135 3135 3135 3136 3136 3138 3140 3140 3141 3142 3143 3144 3146 3147 3149
3082 3085 3089 3093 3097 3099 3101 3103 3105 3108 3110 3112 3115 3117 3119 3120 3121 3122 3123 3124 3126 3127 3128 3129 3129 3129 3130 3130 3131 3132 3132 3131 3132 3134 3135 3136 3137 3138 3140 3141 3142 3144 3146
3072 3076 3080 3084 3088 3091 3094 3096 3099 3102 3105 3107 3109 3112 3115 3117 3117 3118 3119 3120 3122 3123 3125 3126 3126 3127 3127 3127 3128 3129 3129 3129 3130 3131 3132 3132 3133 3134 3136 3137 3138 3140 3142
3058 3065 3071 3075 3078 3082 3086 3090 3093 3094 3098 3101 3103 3105 3109 3111 3113 3114 3115 3117 3119 3120 3120 3121 3122 3123 3124 3124 3125 3125 3126 3126 3127 3127 3127 3127 3128 3129 3129 3131 3133 3135 3137
3046 3054 3059 3066 3070 3073 3077 3081 3085 3088 3090 3094 3096 3099 3101 3106 3107 3110 3112 3114 3115 3116 3118 3117 3118 3118 3119 3119 3120 3121 3121 3122 3122 3123 3123 3123 3123 3124 3124 3125 3127 3129 3131
3034 3040 3045 3054 3061 3065 3069 3073 3078 3081 3084 3087 3090 3093 3095 3098 3102 3105 3108 3110 3111 3113 3113 3114 3114 3114 3114 3115 3116 3116 3117 3118 3118 3118 3118 3118 3118 3118 3119 3120 3121 3124 3125
3023 3029 3034 3040 3049 3054 3058 3064 3070 3075 3078 3081 3084 3087 3090 3094 3096 3100 3102 3104 3106 3108 3110 3111 3111 3111 3111 3110 3111 3111 3112 3112 3113 3114 3114 3114 3113 3112 3113 3114 3115 3116 3119
3012 3018 3023 3029 3035 3044 3049 3055 3061 3066 3071 3075 3078 3081 3084 3087 3090 3093 3096 3099 3100 3102 3104 3105 3106 3107 3107 3107 3107 3106 3106 3106 3107 3108 3108 3108 3108 3107 3107 3108 3107 3104 3106
2998 3005 3008 3014 3018 3033 3039 3047 3053 3059 3063 3068 3072 3075 3078 3081 3084 3087 3089 3092 3094 3095 3097 3098 3099 3101 3102 3102 3102 3102 3101 3101 3101 3101 3102 3102 3102 3102 3102 3102 3102 3102 3105
2983 2990 2995 2997 3002 3007 3028 3037 3042 3050 3054 3060 3065 3069 3072 3075 3079 3081 3082 3085 3087 3089 3089 3090 3091 3093 3094 3095 3095 3095 3095 3095 3095 3095 3095 3095 3096 3096 3097 3096 3097 3098 3099
2971 2975 2987 2987 2994 2998 3017 3025 3035 3042 3046 3052 3057 3062 3066 3068 3071 3074 3075 3076 3078 3079 3081 3083 3084 3084 3086 3088 3088 3088 3088 3089 3089 3089 3089 3089 3089 3089 3090 3091 3091 3092 3094
2963 2967 2973 2979 2980 2985 2992 3016 3025 3033 3040 3045 3050 3054 3058 3061 3063 3066 3068 3069 3069 3069 3071 3074 3077 3080 3078 3079 3081 3080 3081 3082 3083 3082 3082 3082 3082 3082 3083 3084 3084 3085 3086
2954 2962 2968 2976 2978 2980 2979 3003 3017 3025 3033 3038 3042 3045 3049 3052 3054 3057 3059 3060 3061 3062 3062 3066 3066 3067 3066 3067 3070 3072 3072 3074 3075 3075 3075 3075 3075 3075 3075 3075 3076 3077 3076
2951 2956 2967 2977 2983 2979 2985 2993 3005 3015 3023 3030 3033 3035 3038 3042 3045 3046 3046 3051 3052 3054 3056 3061 3059 3054 3054 3058 3059 3061 3062 3064 3065 3066 3067 3067 3066 3066 3066 3066 3067 3068 3069
2946 2951 2964 2970 2976 2980 2963 2982 2997 3004 3013 3015 3019 3022 3026 3031 3034 3035 3036 3039 3044 3042 3045 3051 3051 3048 3047 3049 3053 3053 3055 3056 3058 3058 3058 3057 3057 3056 3056 3056 3057 3058 3059
2948 2952 2961 2967 2968 2969 2971 2969 2987 2996 3002 3003 3010 3012 3016 3020 3023 3027 3029 3031 3034 3035 3036 3039 3041 3040 3042 3043 3043 3043 3044 3045 3046 3048 3048 3048 3046 3046 3045 3046 3046 3047 3048
2947 2950 2957 2964 2966 2968 2967 2959 2980 2986 2980 2993 2999 3002 2998 3010 3013 3016 3018 3022 3023 3026 3027 3028 3029 3030 3031 3034 3033 3033 3033 3035 3035 3035 3035 3037 3036 3034 3034 3035 3035 3036 3036
2948 2951 2956 2961 2961 2966 2965 2969 2971 2979 2976 2978 2986 2995 2994 2985 2998 3006 3008 3010 3011 3014 3016 3017 3019 3020 3021 3020 3021 3022 3020 3023 3021 3021 3022 3025 3025 3024 3025 3025 3024 3025 3025
2948 2946 2951 2955 2955 2968 2966 2964 2969 2975 2971 2973 2977 2980 2982 2986 2992 2995 2996 2998 3001 3003 3005 3007 3007 3009 3010 3008 3009 3010 3008 3009 3005 3010 3012 3013 3013 3012 3014 3013 3012 3013 3014
2949 2955 2952 2963 2970 2967 2965 2965 2968 2968 2967 2969 2973 2974 2974 2980 2984 2986 2983 2988 2989 2992 2993 2995 2995 2995 2995 2997 2998 2999 3001 2999 2997 2997 2999 2999 3001 3000 3000 3001 3001 3001 3002
2953 2955 2963 2967 2965 2967 2966 2965 2967 2967 2969 2973 2973 2974 2974 2974 2975 2979 2978 2979 2981 2982 2982 2983 2981 2981 2982 2984 2984 2986 2987 2987 2985 2985 2987 2982 2988 2986 2988 2987 2987 2990 2992
2961 2961 2963 2966 2967 2969 2970 2971 2972 2973 2972 2973 2974 2973 2970 2972 2970 2973 2970 2970 2971 2970 2969 2969 2968 2969 2969 2971 2970 2971 2972 2972 2971 2972 2972 2971 2971 2975 2975 2975 2975 2977 2979
2969 2971 2970 2970 2972 2973 2972 2971 2972 2969 2968 2971 2971 2968 2968 2969 2968 2968 2965 2963 2963 2961 2961 2961 2959 2957 2957 2958 2957 2957 2958 2958 2956 2956 2958 2959 2958 2959 2959 2960 2961 2963 2965